Location: Limoges
(45.8354°N, 1.2645°E)
Time: 09:00:05
(UTC+01:00)

Vanguard 3 - Visible Passes

Search period start: 25 February 2024 00:00
Search period end: 06 March 2024 00:00
Orbit: 508 x 3239 km, 33.4° (Epoch: 24 February)

Date Brightness Start Highest point End Pass type
(mag) Time Alt. Az. Time Alt. Az. Time Alt. Az.
25 Feb 10.4 20:19:03 10° SSW 20:35:19 37° SSE 20:42:59 28° ESE visible
25 Feb 10.1 22:31:14 10° WSW 22:47:17 49° SSW 22:47:17 49° SSW visible
26 Feb 11.0 00:46:41 10° W 00:51:36 21° WSW 00:51:36 21° WSW visible
26 Feb 10.8 19:02:55 10° S 19:16:33 27° SE 19:30:21 11° E visible
26 Feb 10.1 21:12:33 10° SW 21:30:23 47° SSE 21:34:39 42° SE visible
26 Feb 10.3 23:26:30 10° WSW 23:38:58 42° SW 23:38:58 42° SW visible
27 Feb 11.4 01:42:56 10° W 01:43:16 11° W 01:43:16 11° W visible
27 Feb 10.5 19:55:02 10° SSW 20:11:05 38° SSE 20:21:57 23° ESE visible
27 Feb 9.9 22:07:04 10° WSW 22:25:44 53° S 22:26:15 53° SSE visible
28 Feb 10.7 00:22:17 10° W 00:30:33 29° WSW 00:30:33 29° WSW visible
28 Feb 10.8 18:38:57 10° SSW 18:52:20 28° SE 19:07:10 10° E visible
28 Feb 10.2 20:48:36 10° SW 21:06:07 48° SSE 21:13:29 36° ESE visible
28 Feb 10.1 23:02:17 10° WSW 23:17:46 50° SSW 23:17:46 50° SSW visible
29 Feb 11.1 01:18:30 10° W 01:22:04 17° W 01:22:04 17° W visible
29 Feb 10.5 19:31:15 10° SSW 19:46:48 40° SSE 20:00:39 17° E visible
29 Feb 9.9 21:43:05 10° WSW 22:01:30 54° S 22:04:57 50° SE visible
29 Feb 10.5 23:57:59 10° W 00:09:14 37° WSW 00:09:14 37° WSW visible
01 Mar 10.3 20:24:50 10° SW 20:41:49 50° SSE 20:52:05 30° ESE visible
01 Mar 10.0 22:38:13 10° WSW 22:56:21 55° S 22:56:21 55° S visible
02 Mar 10.9 00:54:08 10° W 01:00:39 24° WSW 01:00:39 24° WSW visible
02 Mar 10.5 19:07:39 10° SW 19:22:32 41° SSE 19:39:09 12° E visible
02 Mar 10.0 21:19:16 10° WSW 21:37:12 55° S 21:43:26 44° SE visible
02 Mar 10.3 23:33:48 10° W 23:47:42 44° SW 23:47:42 44° SW visible
03 Mar 11.3 01:51:01 10° W 01:52:00 12° W 01:52:00 12° W visible
03 Mar 10.3 20:01:15 10° SW 20:17:30 51° SSE 20:30:28 23° ESE visible
03 Mar 10.0 22:14:18 10° WSW 22:32:41 55° S 22:34:44 53° S visible
04 Mar 10.7 00:29:52 10° W 00:39:01 29° WSW 00:39:01 29° WSW visible
04 Mar 10.4 18:44:15 10° SW 18:58:18 42° SSE 19:15:50 10° E visible
04 Mar 10.2 20:55:38 10° WSW 21:12:52 55° S 21:21:44 36° ESE visible
04 Mar 10.2 23:09:46 10° W 23:26:00 48° SSW 23:26:00 48° SSW visible
05 Mar 11.2 01:26:45 10° W 01:30:17 16° W 01:30:17 16° W visible
05 Mar 10.3 19:37:51 10° SW 19:53:13 51° SSE 20:08:43 17° ESE visible
05 Mar 10.0 21:50:33 10° WSW 22:08:21 54° S 22:12:59 48° SSE visible
